[[{"header":{"parameterUnit":"m.s-1","parameterCategory":1,"la1":30.2991,"la2":30.254,"lo1":-89.0895,"lo2":-89.0444,"dy":0.0017,"dx":0.0017,"nx":28,"ny":28,"refTime":"2025-03-12T03:00:00:Z","depth":0,"parameterNumber":2,"parameterNumberName":"U-component_of_WINDS"},"data":[0,0,0,0,0,0,0,0,0,0,0,0,0,0,0,0,0,0,0,0,0,0,0,0,0,0,0,0,0,0,0,0,0,0,0,0,0,0,0,0,0,0,0,0,0,0,0,0,0,0,0,0,0,0,0,0,0,0,-1.4594,-1.4595,0,-1.4663,-1.4664,-1.4665,-1.4694,-1.4694,-1.4694,-1.4693,-1.4764,-1.4766,-1.4768,0,0,0,0,0,0,0,0,0,0,0,0,0,-1.4488,-1.4489,-1.4594,-1.4595,-1.4596,-1.4663,-1.4664,-1.4665,-1.4694,-1.4694,-1.4694,-1.4693,-1.4764,-1.4766,-1.4768,0,0,0,0,0,0,0,0,0,0,0,0,0,-1.4543,-1.449,-1.4594,-1.4619,-1.4621,-1.4663,-1.4664,-1.4665,-1.4694,-1.4694,-1.4694,-1.4693,-1.4763,-1.4766,-1.4769,-1.4791,0,0,-1.4778,-1.4779,0,0,0,0,0,0,0,0,-1.454,-1.4547,-1.4614,-1.4617,-1.462,-1.467,-1.4652,-1.4707,-1.4694,-1.4666,-1.4693,-1.4693,-1.4733,-1.4738,-1.4752,-1.4794,-1.4797,-1.4778,-1.478,-1.4781,-1.4782,0,0,0,0,0,0,0,-1.4536,-1.4544,-1.4622,-1.4615,-1.4619,-1.4626,-1.4634,-1.4663,-1.47,-1.4669,-1.4671,-1.4679,-1.4735,-1.4749,-1.4754,-1.4798,-1.4778,-1.4781,-1.4783,-1.4784,-1.4862,-1.4862,0,0,0,0,0,0,-1.4528,-1.4541,-1.4619,-1.4624,-1.4579,-1.4628,-1.4637,-1.4654,-1.47,-1.4706,-1.4679,-1.468,-1.4744,-1.475,-1.4756,-1.4785,-1.4781,-1.4784,-1.4786,-1.4862,-1.4862,-1.4862,0,0,0,0,0,0,-1.4526,-1.4535,-1.4617,-1.4583,-1.4594,-1.463,-1.4649,-1.4655,-1.467,-1.4707,-1.4714,-1.4687,-1.4744,-1.4752,-1.4782,-1.4788,-1.4785,-1.4788,-1.4861,-1.4862,-1.4862,-1.4843,0,0,0,0,0,0,-1.4522,-1.4534,-1.4543,-1.4583,-1.4595,-1.4641,-1.465,-1.4657,-1.4675,-1.4677,-1.4716,-1.4723,-1.4744,-1.4777,-1.4785,-1.4792,-1.479,-1.4861,-1.4862,-1.4862,-1.4843,-1.4842,-1.4842,0,0,0,0,0,-1.4519,-1.4535,-1.4543,-1.4553,-1.4608,-1.4642,-1.4649,-1.4673,-1.4675,-1.4684,-1.4708,-1.4721,-1.4786,-1.478,-1.4789,-1.4797,-1.4861,-1.4861,-1.4862,-1.4843,-1.4843,-1.4842,0,0,0,0,0,0,-1.4495,-1.4541,-1.455,-1.458,-1.4607,-1.4646,-1.4659,-1.4672,-1.4699,-1.4699,-1.4729,-1.4737,-1.4765,-1.4784,-1.4777,-1.4821,-1.4824,-1.4827,-1.4807,-1.4807,-1.4806,-1.4801,-1.4793,0,0,0,0,0,-1.4493,-1.4517,-1.4556,-1.4578,-1.4591,-1.4622,-1.4638,-1.4655,-1.4684,-1.4695,-1.4721,-1.4749,-1.4775,-1.4792,-1.4818,-1.4846,-1.4855,-1.4856,-1.4855,-1.4854,-1.4856,-1.4871,-1.4872,-1.4864,-1.4864,-1.4864,0,0,-1.449,-1.4518,-1.4531,-1.4574,-1.4597,-1.4621,-1.4632,-1.4657,-1.4675,-1.4699,-1.4729,-1.4749,-1.4781,-1.481,-1.4824,-1.4827,-1.486,-1.4855,-1.4854,-1.4857,-1.4872,-1.4873,-1.4874,-1.4865,-1.4865,-1.4865,0,0,-1.4496,-1.452,-1.4541,-1.4563,-1.4597,-1.4617,-1.4622,-1.466,-1.4674,-1.4704,-1.4723,-1.4744,-1.4789,-1.4812,-1.4829,-1.4842,-1.4855,-1.485,-1.4847,-1.4862,-1.4862,-1.4863,-1.4867,-1.4869,-1.4851,-1.4851,-1.4851,0,-1.4488,-1.4525,-1.455,-1.4574,-1.4592,-1.4614,-1.4635,-1.4656,-1.4696,-1.4708,-1.4711,-1.4767,-1.4791,-1.4825,-1.4828,-1.4841,-1.4847,-1.4846,-1.486,-1.4861,-1.4862,-1.4867,-1.4868,-1.4851,-1.4851,-1.4851,-1.4851,0,-1.4513,-1.4538,-1.4551,-1.4589,-1.4608,-1.4631,-1.4659,-1.4676,-1.469,-1.471,-1.474,-1.4769,-1.4802,-1.4811,-1.4825,-1.4846,-1.4847,-1.4854,-1.4859,-1.4862,-1.4866,-1.4868,-1.4849,-1.485,-1.485,-1.485,0,0,-1.4507,-1.4558,-1.4562,-1.4579,-1.4618,-1.4638,-1.4661,-1.4692,-1.4705,-1.4732,-1.4752,-1.4789,-1.4796,-1.4816,-1.4833,-1.4845,-1.4854,-1.4851,-1.4853,-1.4851,-1.4878,-1.4872,-1.4874,-1.4862,-1.4863,-1.4863,-1.4875,0,-1.4518,-1.456,-1.4583,-1.4615,-1.4638,-1.4659,-1.4679,-1.4705,-1.4724,-1.4747,-1.4768,-1.4794,-1.4801,-1.4813,-1.4826,-1.485,-1.4859,-1.4849,-1.4881,-1.4882,-1.4872,-1.4876,-1.487,-1.4881,-1.4877,-1.4878,-1.4878,0,-1.4537,-1.4563,-1.4597,-1.4632,-1.4643,-1.466,-1.469,-1.4712,-1.4741,-1.4754,-1.4775,-1.4792,-1.4817,-1.4819,-1.4853,-1.4846,-1.486,-1.4873,-1.4874,-1.4878,-1.488,-1.488,-1.4885,-1.4886,-1.4881,-1.4881,-1.4881,0,-1.4528,-1.4572,-1.4598,-1.4612,-1.4654,-1.4666,-1.4683,-1.4713,-1.473,-1.4756,-1.4767,-1.4796,-1.4812,-1.4834,-1.4858,-1.4857,-1.4889,-1.4894,-1.4901,-1.49,-1.4907,-1.4906,-1.4914,-1.4916,-1.4916,-1.4916,-1.4916,0,-1.4538,-1.4559,-1.4595,-1.4611,-1.4634,-1.466,-1.4682,-1.4702,-1.4727,-1.4747,-1.4767,-1.4786,-1.4816,-1.4838,-1.4857,-1.4883,-1.489,-1.4901,-1.4906,-1.4899,-1.4898,-1.4909,-1.4909,-1.4917,-1.4916,-1.4916,-1.4916,0,-1.4533,-1.4558,-1.4588,-1.4625,-1.4634,-1.4649,-1.4681,-1.4697,-1.4717,-1.4742,-1.4749,-1.4781,-1.4808,-1.4834,-1.4871,-1.4883,-1.4908,-1.4915,-1.4898,-1.4901,-1.4907,-1.4906,-1.4922,-1.4925,-1.4925,-1.4925,-1.4925,0,-1.4538,-1.4554,-1.4592,-1.4606,-1.4623,-1.4647,-1.4664,-1.469,-1.4707,-1.4741,-1.4753,-1.4782,-1.4806,-1.4848,-1.4874,-1.4902,-1.4909,-1.4913,-1.4914,-1.4906,-1.4909,-1.4908,-1.4909,-1.4912,-1.4912,-1.4912,-1.4912,0,-1.4543,-1.4555,-1.4579,-1.4607,-1.4627,-1.465,-1.4674,-1.4685,-1.4716,-1.4734,-1.4761,-1.478,-1.4817,-1.4845,-1.4876,-1.4894,-1.4908,-1.4911,-1.4914,-1.4908,-1.4898,-1.4903,-1.4897,-1.4911,-1.4911,-1.4911,-1.4911,-1.4911,-1.4543,-1.4558,-1.4587,-1.4612,-1.4633,-1.4655,-1.4672,-1.4693,-1.4717,-1.4749,-1.4762,-1.479,-1.4819,-1.4861,-1.4879,-1.4902,-1.4905,-1.4909,-1.4911,-1.4911,-1.491,-1.4894,-1.4907,-1.4907,-1.4907,-1.4907,-1.4907,0,-1.4549,-1.4569,-1.4592,-1.4625,-1.4645,-1.4656,-1.4683,-1.4699,-1.4723,-1.4748,-1.4771,-1.4803,-1.483,-1.4858,-1.4886,-1.4899,-1.4906,-1.4905,-1.4905,-1.4909,-1.4905,-1.49,-1.4899,-1.4899,-1.4899,-1.4899,-1.4899,-1.4899,-1.4555,-1.458,-1.4595,-1.4631,-1.465,-1.4677,-1.4691,-1.4712,-1.4732,-1.4766,-1.4788,-1.4806,-1.4832,-1.4863,-1.4888,-1.4895,-1.4905,-1.4903,-1.4912,-1.4908,-1.4909,-1.4909,-1.4904,-1.4905,-1.4905,-1.4914,-1.4914,-1.4914]},{"header":{"parameterUnit":"m.s-1","parameterCategory":1,"la1":30.2991,"la2":30.254,"lo1":-89.0895,"lo2":-89.0444,"dy":0.0017,"dx":0.0017,"nx":28,"ny":28,"refTime":"2025-03-12T03:00:00:Z","depth":0,"parameterNumber":3,"parameterNumberName":"V-component_of_WINDS"},"data":[0,0,0,0,0,0,0,0,0,0,0,0,0,0,0,0,0,0,0,0,0,0,0,0,0,0,0,0,0,0,0,0,0,0,0,0,0,0,0,0,0,0,0,0,0,0,0,0,0,0,0,0,0,0,0,0,0,0,3.4469,3.447,0,3.4537,3.4538,3.4539,3.4552,3.4552,3.4551,3.4551,3.4615,3.4617,3.4619,0,0,0,0,0,0,0,0,0,0,0,0,0,3.4346,3.4348,3.4469,3.447,3.4471,3.4537,3.4538,3.4539,3.4553,3.4552,3.4551,3.4551,3.4614,3.4617,3.462,0,0,0,0,0,0,0,0,0,0,0,0,0,3.4405,3.4349,3.4469,3.4486,3.4488,3.4537,3.4538,3.4539,3.4553,3.4552,3.4551,3.4551,3.4613,3.4617,3.462,3.4655,0,0,3.463,3.4631,0,0,0,0,0,0,0,0,3.4402,3.441,3.4483,3.4485,3.4487,3.4536,3.4518,3.4578,3.4553,3.4528,3.4551,3.455,3.4589,3.4594,3.4608,3.4658,3.4661,3.463,3.4632,3.4633,3.4634,0,0,0,0,0,0,0,3.4398,3.4407,3.4496,3.4484,3.4487,3.4488,3.4496,3.4529,3.4562,3.453,3.4531,3.4539,3.459,3.4605,3.461,3.4662,3.463,3.4633,3.4635,3.4636,3.4744,3.4745,0,0,0,0,0,0,3.4391,3.4403,3.4494,3.4498,3.4442,3.4491,3.45,3.4521,3.4561,3.4567,3.454,3.454,3.46,3.4606,3.4612,3.4657,3.4633,3.4637,3.4638,3.4743,3.4744,3.4745,0,0,0,0,0,0,3.4389,3.4399,3.4491,3.4451,3.4463,3.4494,3.4518,3.4523,3.4538,3.4569,3.4574,3.455,3.46,3.4608,3.4645,3.4659,3.4638,3.4641,3.4742,3.4743,3.4744,3.4745,0,0,0,0,0,0,3.4385,3.4398,3.4413,3.4451,3.4465,3.4524,3.4519,3.4524,3.4544,3.4545,3.458,3.4585,3.46,3.464,3.4648,3.4663,3.4643,3.4741,3.4742,3.4744,3.4744,3.4746,3.4748,0,0,0,0,0,3.4381,3.4409,3.4414,3.4425,3.4485,3.4525,3.4532,3.4551,3.4545,3.456,3.458,3.4584,3.4656,3.4643,3.4653,3.4669,3.474,3.4742,3.4744,3.4743,3.4746,3.4748,0,0,0,0,0,0,3.437,3.4415,3.442,3.4463,3.449,3.4527,3.4546,3.4553,3.4581,3.458,3.46,3.4608,3.4643,3.466,3.4645,3.4705,3.4697,3.4701,3.4694,3.4697,3.4699,3.4694,3.4646,0,0,0,0,0,3.4373,3.4404,3.444,3.4474,3.4488,3.4515,3.4533,3.4545,3.4573,3.4584,3.4607,3.4633,3.4661,3.468,3.4708,3.4746,3.4754,3.4762,3.4764,3.4766,3.4769,3.4791,3.4795,3.4751,3.4751,3.4751,0,0,3.4379,3.4407,3.4425,3.4473,3.4495,3.4525,3.4524,3.4556,3.4578,3.4588,3.4626,3.4643,3.4673,3.4711,3.4729,3.4726,3.4782,3.4768,3.4769,3.4772,3.4793,3.4797,3.4801,3.4753,3.4753,3.4752,0,0,3.4405,3.4429,3.4461,3.4484,3.4519,3.4537,3.4544,3.458,3.4593,3.4631,3.464,3.4665,3.4714,3.4735,3.4752,3.4787,3.4791,3.4795,3.4807,3.4827,3.4831,3.4834,3.4846,3.4851,3.4798,3.4798,3.4798,0,3.4407,3.4455,3.4475,3.4507,3.4528,3.454,3.4571,3.4592,3.4634,3.4647,3.4643,3.4705,3.4726,3.477,3.4778,3.4792,3.48,3.4791,3.4829,3.4832,3.4835,3.4848,3.4852,3.4798,3.4798,3.4798,3.4798,0,3.4455,3.4488,3.4509,3.4551,3.4574,3.4605,3.4629,3.4649,3.4658,3.4676,3.4714,3.474,3.4774,3.4784,3.4793,3.4829,3.4826,3.4825,3.4818,3.484,3.4851,3.4856,3.4799,3.4799,3.4799,3.4799,0,0,3.4477,3.4531,3.4538,3.4558,3.4598,3.4622,3.4653,3.4688,3.4705,3.4733,3.4759,3.48,3.48,3.482,3.4831,3.4849,3.4875,3.4846,3.4847,3.4851,3.4916,3.4917,3.4922,3.4878,3.4879,3.488,3.4914,0,3.4508,3.4567,3.4586,3.4634,3.4664,3.4677,3.4704,3.473,3.4747,3.4774,3.4791,3.4821,3.4818,3.483,3.4849,3.4868,3.4888,3.4866,3.4902,3.4903,3.4894,3.4928,3.4929,3.496,3.4918,3.4919,3.492,0,3.4553,3.4584,3.4635,3.4672,3.4685,3.471,3.4743,3.4769,3.4798,3.4809,3.4832,3.4842,3.4873,3.4863,3.4906,3.4891,3.4906,3.4918,3.4919,3.4924,3.4913,3.4934,3.497,3.4975,3.4927,3.4926,3.4926,0,3.4564,3.4618,3.4657,3.4673,3.4716,3.4733,3.4751,3.478,3.48,3.4829,3.4842,3.4872,3.4889,3.4912,3.493,3.4922,3.4972,3.4963,3.4981,3.498,3.4991,3.499,3.5031,3.5,3.5,3.5,3.5,0,3.4597,3.4628,3.4662,3.4686,3.4721,3.4742,3.4775,3.4794,3.4819,3.4846,3.4857,3.4881,3.4902,3.4929,3.4942,3.4976,3.4983,3.4992,3.4995,3.4992,3.499,3.5002,3.5001,3.5001,3.5001,3.5001,3.5001,0,3.4616,3.464,3.4683,3.4721,3.4731,3.4755,3.4787,3.4809,3.4826,3.4859,3.4868,3.4895,3.4927,3.4946,3.4986,3.4995,3.5032,3.5034,3.5023,3.5024,3.5041,3.5039,3.5091,3.5099,3.5062,3.5062,3.5063,0,3.4636,3.4661,3.4702,3.4722,3.4741,3.4771,3.4792,3.4813,3.4834,3.487,3.4888,3.4921,3.4948,3.4997,3.5019,3.5049,3.5053,3.5069,3.5057,3.5053,3.5053,3.5052,3.5055,3.5071,3.5071,3.5071,3.5071,0,3.4669,3.468,3.4711,3.4746,3.4771,3.4799,3.4827,3.4842,3.4867,3.489,3.4923,3.4945,3.4986,3.5018,3.505,3.5067,3.5073,3.5075,3.5081,3.5077,3.507,3.5074,3.5028,3.5074,3.5073,3.5073,3.5073,3.5073,3.469,3.4713,3.4746,3.4779,3.4803,3.4829,3.4852,3.4873,3.4902,3.4939,3.4949,3.4984,3.5012,3.5056,3.5074,3.51,3.5098,3.5106,3.5108,3.511,3.5111,3.5065,3.5106,3.5106,3.5106,3.5106,3.5106,0,3.4724,3.4746,3.4777,3.4817,3.4843,3.4849,3.488,3.4901,3.4932,3.4959,3.4986,3.5024,3.5055,3.508,3.5112,3.5128,3.5132,3.5136,3.5135,3.5139,3.511,3.5103,3.5132,3.5132,3.5132,3.5132,3.5132,3.5132,3.4745,3.4784,3.4799,3.4849,3.487,3.4907,3.4924,3.4947,3.4969,3.5012,3.5038,3.5055,3.508,3.5114,3.5142,3.5149,3.516,3.5163,3.517,3.5143,3.514,3.5138,3.5131,3.5165,3.5165,3.5196,3.5196,3.5197]}]]